FW9403 Weather Reports


time (UTC)temp
C
wind
direction
speed
KPH
gust
KPH
rain 1hr
cm
rain 24hr
cm
rain mn
cm
humidity
%
barometer
mb
20260504000208 21 18 0.0 0.0 0.00 0.00 0.00 47 1018.5
20260503235707 22 358 0.0 1.6 0.00 0.00 0.00 46 1018.5
20260503235203 22 16 1.6 1.6 0.00 0.00 0.00 45 1018.6
20260503234701 22 359 1.6 1.6 0.00 0.00 0.00 43 1018.5
20260503234159 22 352 0.0 1.6 0.00 0.00 0.00 44 1018.5
20260503233655 22 0 0.0 3.2 0.00 0.00 0.00 42 1018.7
20260503233151 23 21 1.6 3.2 0.00 0.00 0.00 42 1018.5
20260503232648 23 353 0.0 3.2 0.00 0.00 0.00 43 1018.6
20260503232146 23 350 0.0 4.8 0.00 0.00 0.00 41 1018.7
20260503231644 23 9 1.6 8.0 0.00 0.00 0.00 42 1018.7
20260503231140 23 357 4.8 11.3 0.00 0.00 0.00 40 1018.6
20260503230636 23 309 4.8 4.8 0.00 0.00 0.00 40 1018.5
20260503230134 24 342 1.6 3.2 0.00 0.00 0.00 41 1018.6
20260503225631 24 340 12.9 14.5 0.00 0.00 0.00 38 1018.8
20260503225131 25 312 1.6 8.0 0.00 0.00 0.00 38 1018.7
20260503224628 25 351 0.0 1.6 0.00 0.00 0.00 39 1018.6
20260503224126 25 343 1.6 3.2 0.00 0.00 0.00 38 1018.6
20260503223624 25 343 1.6 3.2 0.00 0.00 0.00 36 1018.5
20260503223120 25 338 3.2 9.7 0.00 0.00 0.00 36 1018.6
20260503222618 25 330 4.8 12.9 0.00 0.00 0.00 36 1018.5
20260503222115 25 359 1.6 3.2 0.00 0.00 0.00 36 1018.8
20260503221613 25 350 8.0 9.7 0.00 0.00 0.00 38 1018.7
20260503221110 25 355 3.2 8.0 0.00 0.00 0.00 35 1018.7
20260503220607 25 350 3.2 8.0 0.00 0.00 0.00 36 1018.7
20260503220104 25 343 8.0 12.9 0.00 0.00 0.00 36 1018.8
20260503215601 25 348 1.6 8.0 0.00 0.00 0.00 37 1018.5
20260503215057 25 343 6.4 11.3 0.00 0.00 0.00 34 1018.6
20260503214556 25 327 6.4 9.7 0.00 0.00 0.00 34 1018.9
20260503214052 25 337 4.8 8.0 0.00 0.00 0.00 35 1018.9
20260503213551 25 349 3.2 9.7 0.00 0.00 0.00 38 1018.8
20260503213047 25 336 1.6 11.3 0.00 0.00 0.00 34 1018.9
20260503212544 25 4 1.6 4.8 0.00 0.00 0.00 35 1018.7
20260503212042 25 15 1.6 4.8 0.00 0.00 0.00 35 1019.0
20260503211539 25 326 3.2 9.7 0.00 0.00 0.00 38 1019.2
20260503211034 25 327 6.4 17.7 0.00 0.00 0.00 35 1019.1
20260503210531 25 345 1.6 8.0 0.00 0.00 0.00 36 1019.2
20260503210027 25 28 1.6 9.7 0.00 0.00 0.00 35 1019.4
20260503205524 25 346 1.6 8.0 0.00 0.00 0.00 37 1019.4
20260503205020 25 346 1.6 9.7 0.00 0.00 0.00 36 1019.4
20260503204517 25 0 3.2 11.3 0.00 0.00 0.00 36 1019.6
20260503204014 25 325 11.3 12.9 0.00 0.00 0.00 37 1019.7
20260503203511 25 308 6.4 9.7 0.00 0.00 0.00 36 1019.5
20260503203008 25 322 4.8 9.7 0.00 0.00 0.00 35 1019.7
20260503202506 25 327 3.2 14.5 0.00 0.00 0.00 35 1019.7
20260503202004 25 352 3.2 14.5 0.00 0.00 0.00 39 1019.8
20260503201502 25 336 1.6 8.0 0.00 0.00 0.00 36 1019.9
20260503200959 25 345 1.6 3.2 0.00 0.00 0.00 39 1019.7
20260503200455 25 331 0.0 4.8 0.00 0.00 0.00 40 1019.9
20260503195952 25 347 6.4 8.0 0.00 0.00 0.00 39 1020.1
20260503195449 25 285 4.8 9.7 0.00 0.00 0.00 37 1020.1
20260503194945 25 324 6.4 17.7 0.00 0.00 0.00 36 1020.1
20260503194443 25 323 1.6 3.2 0.00 0.00 0.00 36 1020.3
20260503193938 25 345 3.2 9.7 0.00 0.00 0.00 37 1020.4
20260503193434 23 332 6.4 9.7 0.00 0.00 0.00 40 1020.5
20260503192929 25 42 6.4 12.9 0.00 0.00 0.00 34 1020.3
20260503192426 25 0 1.6 9.7 0.00 0.00 0.00 38 1020.7
20260503191921 25 326 4.8 9.7 0.00 0.00 0.00 37 1020.7
20260503191420 25 359 4.8 8.0 0.00 0.00 0.00 35 1020.7
20260503190915 24 349 4.8 9.7 0.00 0.00 0.00 41 1021.0
20260503190413 24 0 1.6 3.2 0.00 0.00 0.00 34 1020.8
20260503185909 24 357 4.8 12.9 0.00 0.00 0.00 39 1021.0
20260503185406 24 30 4.8 9.7 0.00 0.00 0.00 35 1021.0
20260503184905 24 351 1.6 9.7 0.00 0.00 0.00 36 1021.1
20260503184402 23 313 3.2 4.8 0.00 0.00 0.00 39 1021.2
20260503183858 23 344 3.2 11.3 0.00 0.00 0.00 37 1021.4
20260503183355 23 357 1.6 4.8 0.00 0.00 0.00 36 1021.6
20260503182853 24 15 4.8 12.9 0.00 0.00 0.00 36 1021.5
20260503182351 25 295 4.8 8.0 0.00 0.00 0.00 39 1021.6
20260503181848 24 347 1.6 9.7 0.00 0.00 0.00 38 1021.6
20260503181345 23 5 6.4 16.1 0.00 0.00 0.00 36 1021.3
20260503180842 24 345 4.8 14.5 0.00 0.00 0.00 37 1021.5
20260503180340 24 20 4.8 12.9 0.00 0.00 0.00 39 1021.8
20260503175836 24 2 9.7 14.5 0.00 0.00 0.00 41 1021.6
20260503175334 24 345 4.8 8.0 0.00 0.00 0.00 39 1021.7
20260503174829 24 319 3.2 12.9 0.00 0.00 0.00 40 1021.6
20260503174328 23 340 3.2 8.0 0.00 0.00 0.00 41 1021.7
20260503173823 23 353 1.6 8.0 0.00 0.00 0.00 37 1021.9
20260503173319 23 346 1.6 8.0 0.00 0.00 0.00 39 1021.8
20260503172816 23 344 0.0 4.8 0.00 0.00 0.00 37 1021.9
20260503172314 23 350 6.4 12.9 0.00 0.00 0.00 37 1022.0
20260503171810 23 335 6.4 14.5 0.00 0.00 0.00 40 1021.8
20260503171307 23 85 3.2 3.2 0.00 0.00 0.00 39 1022.0
20260503170804 23 3 3.2 9.7 0.00 0.00 0.00 41 1022.1
20260503170300 23 16 6.4 12.9 0.00 0.00 0.00 36 1022.2
20260503150653 22 18 3.2 8.0 0.00 0.00 0.00 42 1023.0
20260503150149 22 7 3.2 8.0 0.00 0.00 0.00 45 1022.8
20260503140113 20 359 1.6 4.8 0.00 0.00 0.00 56 1022.6
20260503131042 16 6 0.0 4.8 0.00 0.00 0.00 72 1022.1
20260503130539 16 356 1.6 3.2 0.00 0.00 0.00 71 1021.9
20260503110430 7 347 1.6 1.6 0.00 0.00 0.00 99 1021.0
20260503090321 8 351 0.0 1.6 0.00 0.00 0.00 98 1020.5
20260503081248 9 351 0.0 0.0 0.00 0.00 0.00 91 1020.4
20260503080744 10 347 0.0 0.0 0.00 0.00 0.00 90 1020.1
20260503080242 10 345 0.0 1.6 0.00 0.00 0.00 87 1019.9
20260503072718 10 341 1.6 3.2 0.00 0.00 0.00 85 1019.7
20260503072215 10 343 1.6 3.2 0.00 0.00 0.00 85 1019.5
20260503071712 10 328 1.6 3.2 0.00 0.00 0.00 88 1019.8
20260503071209 10 347 1.6 3.2 0.00 0.00 0.00 94 1019.7
20260503070705 8 331 1.6 3.2 0.00 0.00 0.00 99 1019.8
20260503070204 8 338 1.6 3.2 0.00 0.00 0.00 98 1019.9
20260503060127 10 347 0.0 1.6 0.00 0.00 0.00 92 1020.0
20260503055119 11 352 0.0 0.0 0.00 0.00 0.00 85 1019.6
20260503054615 11 348 0.0 0.0 0.00 0.00 0.00 82 1019.6
20260503054112 12 348 0.0 1.6 0.00 0.00 0.00 81 1019.6
20260503053610 12 350 0.0 1.6 0.00 0.00 0.00 80 1019.6
20260503053108 12 348 1.6 1.6 0.00 0.00 0.00 80 1019.7
20260503052604 12 349 0.0 3.2 0.00 0.00 0.00 81 1019.7
20260503052101 11 334 1.6 1.6 0.00 0.00 0.00 83 1019.6
20260503051556 11 344 1.6 1.6 0.00 0.00 0.00 86 1019.7
20260503051054 11 352 0.0 0.0 0.00 0.00 0.00 86 1019.6
20260503050549 11 352 0.0 0.0 0.00 0.00 0.00 86 1019.5
20260503050047 11 353 0.0 0.0 0.00 0.00 0.00 87 1019.3
20260503045544 11 347 0.0 1.6 0.00 1.57 1.57 86 1019.5
20260503045041 11 345 0.0 1.6 0.00 1.57 1.57 86 1019.6
20260503044538 11 351 0.0 0.0 0.00 1.57 1.57 88 1019.2
20260503044036 11 346 0.0 1.6 0.00 1.57 1.57 93 1019.3
20260503043532 10 349 0.0 3.2 0.00 1.57 1.57 96 1019.3
20260503043028 10 342 1.6 1.6 0.00 1.57 1.57 97 1019.4
20260503042526 11 342 0.0 1.6 0.00 1.57 1.57 96 1019.3
20260503042021 11 342 0.0 1.6 0.00 1.57 1.57 95 1019.4
20260503041518 11 343 0.0 1.6 0.00 1.57 1.57 95 1019.3
20260503041016 10 343 0.0 0.0 0.00 1.57 1.57 95 1019.2
20260503040514 11 343 0.0 0.0 0.00 1.57 1.57 95 1019.4
20260503040011 11 343 0.0 0.0 0.00 1.57 1.57 95 1019.1
20260503035507 11 343 0.0 0.0 0.00 1.57 1.57 95 1019.3
20260503035005 11 343 0.0 0.0 0.00 1.57 1.57 94 1019.3
20260503034502 11 343 0.0 0.0 0.00 1.57 1.57 93 1019.0
20260503033959 11 343 0.0 0.0 0.00 1.57 1.57 91 1019.1
20260503033456 11 343 0.0 0.0 0.00 1.57 1.57 91 1019.3
20260503032954 11 343 0.0 0.0 0.00 1.57 1.57 90 1019.0
20260503032452 11 343 0.0 0.0 0.00 1.57 1.57 90 1019.0
20260503031950 11 331 1.6 1.6 0.00 1.57 1.57 91 1018.9
20260503031447 12 336 0.0 1.6 0.00 1.57 1.57 89 1018.9
20260503030944 12 343 0.0 1.6 0.00 1.57 1.57 87 1019.0
20260503030440 12 345 0.0 0.0 0.00 1.57 1.57 86 1018.8
20260503025937 11 346 0.0 1.6 0.00 1.57 1.57 89 1018.9
20260503025434 11 346 0.0 0.0 0.00 1.57 1.57 91 1018.8
20260503024932 11 346 0.0 1.6 0.00 1.57 1.57 92 1018.9
20260503024428 12 342 1.6 1.6 0.00 1.57 1.57 90 1018.8
20260503023925 12 350 0.0 1.6 0.00 1.57 1.57 89 1018.6
20260503023422 12 350 0.0 1.6 0.00 1.57 1.57 89 1018.5
20260503022919 12 350 0.0 1.6 0.00 1.57 1.57 85 1018.6
20260503022414 12 350 0.0 0.0 0.00 1.57 1.57 84 1018.3
20260503021910 13 350 0.0 0.0 0.00 1.57 1.57 83 1018.4
20260503021406 13 350 0.0 0.0 0.00 1.57 1.57 84 1018.3
20260503020904 13 350 0.0 0.0 0.00 1.57 1.57 81 1018.3
20260503020402 13 351 0.0 0.0 0.00 1.57 1.57 81 1018.2
20260503015857 13 351 0.0 0.0 0.00 1.57 1.57 80 1018.1
20260503015355 13 350 0.0 0.0 0.00 1.57 1.57 76 1018.2
20260503014850 13 350 0.0 0.0 0.00 1.57 1.57 75 1018.0
20260503014348 14 350 0.0 0.0 0.00 1.57 1.57 74 1018.0
20260503013846 14 350 0.0 0.0 0.00 1.57 1.57 72 1017.9
20260503013342 15 350 0.0 0.0 0.00 1.57 1.57 71 1017.9
20260503012839 15 350 0.0 1.6 0.00 1.57 1.57 71 1017.7
20260503012337 15 350 0.0 0.0 0.00 1.57 1.57 69 1017.7
20260503011834 16 345 0.0 0.0 0.00 1.57 1.57 65 1017.6
20260503011331 16 348 0.0 1.6 0.00 1.57 1.57 65 1017.6
20260503010827 16 349 0.0 1.6 0.00 1.57 1.57 66 1017.2
20260503010325 16 349 0.0 1.6 0.00 1.57 1.57 65 1017.3
20260503005821 16 351 0.0 0.0 0.00 1.57 1.57 63 1017.2
20260503005319 17 351 0.0 1.6 0.00 1.57 1.57 61 1017.1
20260503004815 17 354 0.0 3.2 0.00 1.57 1.57 59 1017.1
20260503004313 17 334 3.2 3.2 0.00 1.57 1.57 58 1016.8
20260503003810 17 326 3.2 3.2 0.00 1.57 1.57 57 1016.9
20260503003307 17 353 1.6 3.2 0.00 1.57 1.57 57 1016.7
20260503002804 18 3 1.6 4.8 0.00 1.57 1.57 56 1016.7
20260503002300 18 350 1.6 1.6 0.00 1.57 1.57 56 1016.4
20260503001756 18 357 1.6 4.8 0.00 1.57 1.57 54 1016.2
20260503001253 18 348 1.6 4.8 0.00 1.57 1.57 53 1016.2
20260503000751 19 351 1.6 9.7 0.00 1.57 1.57 50 1016.3
20260503000248 19 1 1.6 8.0 0.00 1.57 1.57 49 1016.3